Jackson, KY

11:16 AM EDT on August 18, 2017 (GMT -0400)
Carroll

Weather History for KJKL - October, 2013

Change the Weather History Date:

Friday, October 4, 2013

  Actual Average Record
Temperature  
Mean Temperature 72 °F 62 °F  
Max Temperature 82 °F 72 °F 86 °F (2005)
Min Temperature 62 °F 51 °F 31 °F (1987)
Degree Days  
Heating Degree Days 0 5  
Month to date heating degree days 0 20  
Since 1 July heating degree days 30 72  
Cooling Degree Days 7 2  
Month to date cooling degree days 25 8  
Year to date cooling degree days 1051 1129  
Growing Degree Days 22 (Base 50)    
Moisture  
Dew Point 62 °F    
Average Humidity 77    
Maximum Humidity 100    
Minimum Humidity 54    
Precipitation  
Precipitation 0.00 in 0.10 in 1.20 in (1990)
Month to date precipitation T 0.40  
Year to date precipitation 44.49 37.41  
Snow  
Snow 0.00 in 0.00 in - ()
Month to date snowfall 0.0 0.0  
Since 1 July snowfall 0.0 0.0  
Since 1 September snowfall 0.0 0.0  
Snow Depth 0.00 in    
Sea Level Pressure  
Sea Level Pressure 30.11 in    
Wind  
Wind Speed 0 mph (North)    
Max Wind Speed 6 mph    
Max Gust Speed 10 mph    
Visibility 6 miles    
Events      
T = Trace of Precipitation, MM = Missing Value Source: NWS Daily Summary

Daily Weather History Graph

Daily Weather History Graph

Search for Another Location

Airport or City:

Trip Planner

Search our weather history database for the weather conditions in past years. The results will help you decide how hot, cold, wet, or windy it might be!

Date:

Astronomy

Oct. 04, 2013 Rise Set
Actual Time 7:31 AM EDT 7:11 PM EDT
Civil Twilight 7:05 AM EDT 7:37 PM EDT
Nautical Twilight 6:35 AM EDT 8:07 PM EDT
Astronomical Twilight 6:04 AM EDT 8:38 PM EDT
Moon 7:05 AM EDT (10/4) 6:54 PM EDT (10/4)
Length of Visible Light 12h 32m
Length of Day
11h 39m
Waning Crescent, 0% of the Moon is Illuminated
Oct 4
Waning Crescent
Oct 4
New
Oct 11
First Quarter
Oct 18
Full
Oct 26
Last Quarter

Hourly Weather History & Observations

Time (EDT) Temp. Heat Index Dew Point Humidity Pressure Visibility Wind Dir Wind Speed Gust Speed Precip Events Conditions
12:53 AM 66.0 °F - 64.0 °F 93% 30.08 in 6.0 mi Calm Calm - N/A   Clear
1:53 AM 64.9 °F - 64.0 °F 97% 30.08 in 4.0 mi Calm Calm - N/A   Clear
2:53 AM 64.0 °F - 63.0 °F 96% 30.08 in 2.5 mi Calm Calm - N/A   Partly Cloudy
3:09 AM 64.4 °F - 62.6 °F 94% 30.12 in 3.0 mi Calm Calm - N/A   Partly Cloudy
3:24 AM 64.4 °F - 62.6 °F 94% 30.11 in 2.0 mi Calm Calm - N/A   Partly Cloudy
3:37 AM 64.4 °F - 62.6 °F 94% 30.11 in 3.0 mi Calm Calm - N/A   Partly Cloudy
3:45 AM 62.6 °F - 62.6 °F 100% 30.11 in 1.8 mi Calm Calm - N/A   Scattered Clouds
3:48 AM 62.6 °F - 62.6 °F 100% 30.11 in 1.5 mi Calm Calm - N/A   Mostly Cloudy
3:53 AM 63.0 °F - 62.1 °F 97% 30.08 in 1.2 mi Calm Calm - N/A   Mostly Cloudy
4:05 AM 62.6 °F - 60.8 °F 94% 30.11 in 0.8 mi Calm Calm - N/A   Mist
4:12 AM 62.6 °F - 60.8 °F 94% 30.11 in 1.2 mi Calm Calm - N/A   Mostly Cloudy
4:17 AM 62.6 °F - 60.8 °F 94% 30.11 in 2.0 mi Calm Calm - N/A   Mostly Cloudy
4:24 AM 62.6 °F - 60.8 °F 94% 30.11 in 1.8 mi Calm Calm - N/A   Scattered Clouds
4:37 AM 62.6 °F - 60.8 °F 94% 30.11 in 2.5 mi Calm Calm - N/A   Partly Cloudy
4:48 AM 62.6 °F - 60.8 °F 94% 30.11 in 3.0 mi Calm Calm - N/A   Clear
4:53 AM 63.0 °F - 61.0 °F 93% 30.08 in 4.0 mi Calm Calm - N/A   Clear
5:53 AM 63.0 °F - 61.0 °F 93% 30.09 in 5.0 mi Calm Calm - N/A   Clear
6:53 AM 62.1 °F - 61.0 °F 96% 30.11 in 5.0 mi Calm Calm - N/A   Clear
7:45 AM 62.6 °F - 60.8 °F 94% 30.15 in 2.0 mi Calm Calm - N/A   Clear
7:53 AM 62.1 °F - 60.1 °F 93% 30.13 in 2.5 mi Calm Calm - N/A   Clear
8:14 AM 62.6 °F - 60.8 °F 94% 30.17 in 3.0 mi Calm Calm - N/A   Clear
8:53 AM 64.0 °F - 63.0 °F 96% 30.15 in 8.0 mi Calm Calm - N/A   Clear
9:53 AM 68.0 °F - 63.0 °F 84% 30.16 in 10.0 mi Variable 3.5 mph - N/A   Partly Cloudy
10:53 AM 72.0 °F - 64.0 °F 76% 30.16 in 10.0 mi Calm Calm - N/A   Clear
11:53 AM 75.9 °F - 64.9 °F 69% 30.14 in 10.0 mi Calm Calm - N/A   Clear
12:53 PM 78.1 °F - 64.9 °F 64% 30.14 in 10.0 mi Calm Calm - N/A   Scattered Clouds
1:53 PM 79.0 °F - 62.1 °F 56% 30.12 in 10.0 mi Calm Calm - N/A   Partly Cloudy
2:53 PM 78.1 °F - 64.0 °F 62% 30.10 in 10.0 mi Calm Calm - N/A   Overcast
3:53 PM 81.0 °F 81.9 °F 62.1 °F 52% 30.09 in 10.0 mi Calm Calm - N/A   Clear
4:53 PM 81.0 °F 81.9 °F 62.1 °F 52% 30.08 in 10.0 mi Calm Calm - N/A   Scattered Clouds
5:53 PM 79.0 °F - 62.1 °F 56% 30.09 in 10.0 mi Calm Calm - N/A   Partly Cloudy
6:53 PM 75.9 °F - 62.1 °F 62% 30.09 in 10.0 mi Calm Calm - N/A   Clear
7:53 PM 73.9 °F - 62.1 °F 66% 30.09 in 10.0 mi Calm Calm - N/A   Clear
8:53 PM 73.0 °F - 62.1 °F 68% 30.10 in 10.0 mi Calm Calm - N/A   Clear
9:53 PM 71.1 °F - 62.1 °F 73% 30.11 in 10.0 mi Calm Calm - N/A   Clear
10:53 PM 71.1 °F - 62.1 °F 73% 30.10 in 10.0 mi Calm Calm - N/A   Clear
11:53 PM 68.0 °F - 63.0 °F 84% 30.10 in 10.0 mi Calm Calm - N/A   Clear